Location: Ohmer (historical)
(38.0096°N, 122.0227°W)
Time: 23:41:17
(UTC+00:00)

Meteor 2-16 Rocket - Pass Details

Date: 14 February 2026
Orbit: 941 x 956 km, 82.6° (Epoch: 9 March)

Event Time Altitude Azimuth Distance (km) Brightness Sun altitude
Rises 12:52:08 0° 349° (N) 3,617 7.4 -25.6°
Reaches altitude 10° 12:54:39 10° 347° (NNW) 2,670 6.7 -25.1°
Maximum altitude 13:00:40 65° 267° (W) 1,035 4.3 -23.9°
Drops below altitude 10° 13:06:41 10° 186° (S) 2,663 6.7 -22.7°
Sets 13:09:11 0° 184° (S) 3,607 7.4 -22.2°
